Andermatt, Switzerland 16 day weather forecast

Slopes altitude range 1445 m - 2960m

Number of lifts: 20 Pistes: 125km

In some cases the lift and piste totals shown are for the ski domain (e.g. Three Valleys) rather than individual resort (e.g. Courchevel)

Overview

The 16 day weather forecast is fully updated 4 times every day.

    • Wed 26 JUN 2019
    • Wed 26
    • 18C 25C
    • Thu 27 JUN 2019
    • Thu 27
    • 18C 24C
    • Fri 28 JUN 2019
    • Fri 28
    • 17C 22C
    • Sat 29 JUN 2019
    • Sat 29
    • 13C 19C
    • Sun 30 JUN 2019
    • Sun 30
    • 16C 22C
    • Mon 01 JUL 2019
    • Mon 01
    • 17C 22C
    • Tue 02 JUL 2019
    • Tue 02
    • 14C 18C
    • Wed 03 JUL 2019
    • Wed 03
    • 12C 15C
    • Thu 04 JUL 2019
    • Thu 04
    • 17C 21C
    • Fri 05 JUL 2019
    • Fri 05
    • 19C 23C
    • Sat 06 JUL 2019
    • Sat 06
    • 9C 13C
    • Sun 07 JUL 2019
    • Sun 07
    • 12C 20C
    • Mon 08 JUL 2019
    • Mon 08
    • 18C 23C
    • Tue 09 JUL 2019
    • Tue 09
    • 18C 22C
    • Wed 10 JUL 2019
    • Wed 10
    • 18C 20C
    • Thu 11 JUL 2019
    • Thu 11
    • 19C 24C

Date:

Time Type 0°C level Temp Chill Snow Cloud Speed Gust Dir Press
3:00 4618m 9°C 9_2 0cm 43% 2mph 2mph 1025mB
6:00 4609m 9°C 9_4 0cm 21% 4mph 4mph 1026mB
9:00 4616m 18°C 18_2 0cm 0% 2mph 4mph 1025mB
12:00 4608m 25°C 25_6 0cm 0% 6mph 9mph 1024mB
15:00 4603m 25°C 25_7 0cm 48% 7mph 9mph 1024mB
18:00 4640m 25°C 25_4 0cm 32% 4mph 4mph 1025mB
21:00 4630m 12°C 12_3 0cm 36% 3mph 4mph 1026mB
0:00 4601m 12°C 12_4 0cm 39% 4mph 5mph 1026mB
3:00 4583m 11°C 11_5 0cm 0% 5mph 6mph 1025mB
6:00 4576m 11°C 11_8 0cm 0% 8mph 8mph 1024mB
9:00 4552m 18°C 18_7 0cm 0% 7mph 15mph 1023mB
12:00 4526m 24°C 24_16 0cm 0% 16mph 20mph 1022mB
15:00 4522m 24°C 24_16 0cm 0% 16mph 21mph 1021mB
18:00 4559m 24°C 24_7 0cm 0% 7mph 7mph 1020mB
21:00 4624m 13°C 13_8 0cm 0% 8mph 8mph 1023mB
0:00 4648m 12°C 12_9 0cm 0% 9mph 9mph 1022mB
3:00 4596m 11°C 11_9 0cm 0% 9mph 9mph 1021mB
6:00 4583m 11°C 11_8 0cm 0% 8mph 8mph 1020mB
9:00 4586m 17°C 17_7 0cm 0% 7mph 14mph 1020mB
12:00 4584m 22°C 22_8 0cm 0% 8mph 12mph 1018mB
15:00 4700m 22°C 22_8 0cm 0% 8mph 9mph 1017mB
18:00 4771m 22°C 22_6 0cm 0% 6mph 7mph 1018mB
21:00 4818m 11°C 11_4 0cm 0% 4mph 5mph 1020mB
0:00 4839m 8°C 8_2 0cm 0% 2mph 2mph 1020mB
3:00 4829m 7°C 7_3 0cm 5% 3mph 4mph 1020mB
6:00 4850m 7°C 7_5 0cm 43% 5mph 5mph 1019mB
9:00 4879m 13°C 13_5 0cm 57% 5mph 4mph 1019mB
12:00 4900m 19°C 19_6 0cm 42% 6mph 4mph 1018mB
15:00 4892m 20°C 20_6 0cm 29% 6mph 5mph 1017mB
18:00 4870m 20°C 20_3 0cm 42% 3mph 3mph 1018mB
21:00 4868m 12°C 12_2 0cm 58% 2mph 3mph 1020mB
0:00 4824m 11°C 11_2 0cm 58% 2mph 2mph 1020mB
3:00 4775m 8°C 8_2 0cm 26% 2mph 3mph 1020mB
6:00 4724m 8°C 8_4 0cm 13% 4mph 4mph 1020mB
9:00 4688m 16°C 16_3 0cm 0% 3mph 4mph 1020mB
12:00 4575m 22°C 22_4 0cm 0% 4mph 5mph 1019mB
15:00 4506m 22°C 22_5 0cm 0% 5mph 6mph 1019mB
18:00 4577m 22°C 22_3 0cm 0% 3mph 3mph 1019mB
21:00 4530m 10°C 10_3 0cm 0% 3mph 4mph 1021mB
0:00 4531m 9°C 9_2 0cm 0% 2mph 3mph 1021mB
3:00 4474m 9°C 9_2 0cm 0% 2mph 4mph 1019mB
6:00 4411m 9°C 9_2 0cm 1% 2mph 2mph 1020mB
9:00 4371m 17°C 17_3 0cm 16% 3mph 4mph 1019mB
12:00 4323m 22°C 22_3 0cm 53% 3mph 6mph 1018mB
15:00 4397m 21°C 21_6 0cm 79% 6mph 7mph 1017mB
18:00 4209m 21°C 21_6 0cm 76% 6mph 6mph 1018mB
21:00 4119m 11°C 11_5 0cm 100% 5mph 6mph 1020mB
0:00 4161m 11°C 11_3 0cm 100% 3mph 4mph 1020mB
3:00 4127m 9°C 9_2 0cm 100% 2mph 3mph 1018mB
6:00 4119m 8°C 8_3 0cm 71% 3mph 3mph 1018mB
9:00 4164m 14°C 14_2 0cm 85% 2mph 3mph 1018mB
12:00 4224m 18°C 18_1 0cm 92% 1mph 2mph 1017mB
15:00 4079m 17°C 17_4 0cm 100% 4mph 4mph 1017mB
18:00 4082m 17°C 17_0 0cm 100% 0mph 2mph 1017mB
21:00 4083m 11°C 11_2 0cm 100% 2mph 3mph 1018mB
0:00 4092m 9°C 9_4 0cm 86% 4mph 5mph 1018mB
3:00 3979m 8°C 8_3 0cm 81% 3mph 4mph 1018mB
6:00 3923m 7°C 7_4 0cm 87% 4mph 4mph 1018mB
9:00 4012m 12°C 12_4 0cm 90% 4mph 4mph 1018mB
12:00 4056m 15°C 15_3 0cm 61% 3mph 3mph 1017mB
15:00 4035m 19°C 19_5 0cm 52% 5mph 4mph 1017mB
18:00 4012m 19°C 19_2 0cm 54% 2mph 2mph 1017mB
21:00 4018m 11°C 11_3 0cm 39% 3mph 5mph 1019mB
0:00 3975m 11°C 11_6 0cm 70% 6mph 7mph 1019mB
3:00 4002m 11°C 11_5 0cm 18% 5mph 6mph 1018mB
6:00 3990m 11°C 11_1 0cm 22% 1mph 2mph 1018mB
9:00 3958m 17°C 17_4 0cm 24% 4mph 3mph 1017mB
12:00 3994m 21°C 21_4 0cm 42% 4mph 5mph 1017mB
15:00 4065m 21°C 21_4 0cm 89% 4mph 4mph 1016mB
18:00 4121m 21°C 21_2 0cm 76% 2mph 4mph 1016mB
21:00 4034m 12°C 12_4 0cm 41% 4mph 6mph 1018mB
0:00 4019m 12°C 12_4 0cm 20% 4mph 5mph 1018mB
3:00 4038m 12°C 12_4 0cm 60% 4mph 6mph 1017mB
6:00 3944m 12°C 12_6 0cm 47% 6mph 7mph 1017mB
9:00 3907m 19°C 19_4 0cm 100% 4mph 4mph 1017mB
12:00 3973m 23°C 23_6 0cm 88% 6mph 13mph 1017mB
15:00 4156m 23°C 23_8 0cm 48% 8mph 10mph 1016mB
18:00 4060m 23°C 23_1 0cm 70% 1mph 2mph 1017mB
21:00 4040m 12°C 12_2 0cm 100% 2mph 3mph 1020mB
0:00 3920m 11°C 11_3 0cm 100% 3mph 4mph 1020mB
Afternoon 0.104167mm 0.25 3361m 13°C 13_7 0cm 100% 7mph 7mph 1021mB
Morning 0mm 0 3899m 4°C 4_4 0cm 0% 4mph 4mph 1024mB
Afternoon 0mm 0 4380m 20°C 20_6 0cm 0% 6mph 4mph 1020mB
Morning 0mm 0 4423m 10°C 10_3 0cm 21% 3mph 4mph 1020mB
Afternoon 0mm 0 4364m 23°C 23_6 0cm 6% 6mph 4mph 1017mB
Morning 0.0625mm 0.1875 4301m 13°C 13_4 0cm 51% 4mph 5mph 1018mB
Afternoon 0.416667mm 1.25 4292m 22°C 22_6 0cm 76% 6mph 5mph 1017mB
Morning 0.5625mm 1.6875 4122m 12°C 12_3 0cm 73% 3mph 4mph 1019mB
Afternoon 0.708333mm 2.0625 4157m 20°C 20_5 0cm 87% 5mph 4mph 1016mB
Morning 0.0833333mm 0.25 4015m 11°C 11_2 0cm 37% 2mph 3mph 1017mB
Afternoon 0.0416667mm 0.0625 4078m 24°C 24_5 0cm 49% 5mph 5mph 1012mB
Morning 0.0208333mm 0.125 3781m 10°C 10_2 0cm 100% 2mph 3mph 1011mB

16 day outlook at a glance

Forecast issued: 6/26/2019 7:47:18 AM

Chat

Your comments and questions. In a resort? Let us know what it's like!


Characters left 250

For terms and conditions see Readers Comments on the Cookie and privacy policy page.